Starlink 32894

operational
NORAD ID: 62969 Int'l Des: 2025-029 Owner: SPXS Country: US Constellation: starlink
LEOCIRCULAR

About Starlink 32894

Description loading...

Live Position

Loading 3D Globe...

Upcoming Passes

Altitude History

Altitude vs Time

uPlot chart will show altitude changes over time

Two-Line Element Set

1 62969U 25029X 25259.45192376 .00034236 00000-0 11634-2 0 9995
2 62969 53.1600 321.5853 0000957 71.7349 288.3756 15.30181557 34640
Epoch: Sep 16, 2025 • Age: 44 hours

Current Status

Altitude 480.4 km
Velocity 7.63 km/s
Sub-Earth Point 51.22°N, 40.28°W
Launch Date Feb 11, 2025
Age 0.5 years
Type internet

Technical Details

Classification Payload
Mass 730.00 kg
Dry Mass 700.00 kg
Total Mass 730.00 kg
Length 0.30 m
Diameter 4.10 m
Span 29.00 m
Shape Box + pan
Manufacturer SPXS
Bus Type Starlink V2M
Phase Status In Orbit
Owner/State SPXS/US

Large Constellations

Loading constellations...